National Weather Service Raw Text Product

Displaying AFOS PIL: RWRIA Received: 2018-01-13 00:00 UTC


414 
ASUS43 KDMX 130006
RWRIA 

WEATHER ROUNDUP FOR IOWA
NATIONAL WEATHER SERVICE DES MOINES IA
600 PM CST FRI JAN 12 2018

NOTE: "FAIR" INDICATES FEW OR NO CLOUDS BELOW 12,000 FEET WITH NO
SIGNIFICANT WEATHER AND/OR OBSTRUCTIONS TO VISIBILITY.

* - THESE STATIONS ARE NOT NWS STATIONS...THUS NOT UNDER NWS
QUALITY CONTROL.  THEY ALSO DO NOT REPORT WEATHER SUCH 
AS PRECIPITATION OR FOG.  

IAZ001>003-012>014-020>022-031>034-043>046-130100-
   NORTHWEST IOWA
  
CITY           SKY/WX    TMP DP  RH WIND       PRES   REMARKS
CARROLL *      CLOUDY     7  -2  66 N10       30.55R WCI  -8          
CHEROKEE *     CLOUDY     6  -3  65 N8        30.58R WCI  -7          
DENISON *      CLOUDY     9   0  66 N12       30.56R WCI  -6          
LE MARS *      CLOUDY     7  -2  66 N14       30.60R WCI -10          
ORANGE CITY *  CLOUDY     7  -2  66 N6        30.57R WCI  -3          
SHELDON *      CLOUDY     5  -6  61 N13       30.56R WCI -12          
SIOUX CITY     CLOUDY     9  -3  58 N12       30.60R WCI  -6          
6HR MIN TEMP:   6; 6HR MAX TEMP:  10;                                

SPENCER        CLOUDY     5  -6  60 N13       30.57R WCI -12          
6HR MIN TEMP:   3; 6HR MAX TEMP:   7;                                

STORM LAKE *   CLOUDY     5  -4  66 N13       30.54R WCI -12          
$$
 
IAZ055>058-069>071-079>083-090>094-130100-
   SOUTHWEST IOWA
  
CITY           SKY/WX    TMP DP  RH WIND       PRES   REMARKS
ATLANTIC *     CLOUDY     9  -2  61 N12       30.54R WCI  -6          
AUDUBON *      CLOUDY     7  -2  66 N8        30.54R WCI  -6          
CLARINDA *     CLOUDY    10   0  61 N15       30.55R WCI  -6          
COUNCIL BLFS * CLOUDY    10   1  67 N10       30.54R WCI  -3          
CRESTON *      CLOUDY     7  -2  66 N14G20    30.50R WCI -10          
HARLAN  *      CLOUDY     9   0  66 N12       30.58R WCI  -6          
LAMONI         CLOUDY     7  -4  60 N14G23    30.47R WCI -10          
6HR MIN TEMP:   7; 6HR MAX TEMP:  12;                                

RED OAK *      CLOUDY    10   0  61 N15       30.55R WCI  -6          
SHENANDOAH *   CLOUDY    12   0  57 N16       30.56R WCI  -4          
$$
 
IAZ047>049-059>061-072>074-084-130100-
   CENTRAL IOWA
  
CITY           SKY/WX    TMP DP  RH WIND       PRES   REMARKS
AMES           CLOUDY     4  -4  69 N16       30.54R WCI -15          
6HR MIN TEMP:   1; 6HR MAX TEMP:   7;                                

ANKENY *       CLOUDY     5  -4  66 N14G22    30.55R WCI -12          
BOONE *        CLOUDY     3  -4  72 N16       30.52R WCI -16          
CHARITON *     CLOUDY     7  -4  61 N16G26    30.48R WCI -11          
DES MOINES     CLOUDY     7  -5  57 N15G22    30.53R WCI -10          
6HR MIN TEMP:   4; 6HR MAX TEMP:   9;                                

GRINNELL*      CLOUDY     6  -2  71 NW13      30.48R WCI -11          
KNOXVILLE *    CLOUDY     7  -4  61 NW16G24   30.48R WCI -11          
MARSHALLTOWN   CLOUDY     4  -4  69 N14       30.50R WCI -14          
6HR MIN TEMP:   3; 6HR MAX TEMP:   8;                                

NEWTON *       CLOUDY     7  -4  61 N20G25    30.50R WCI -13          
PELLA *        CLOUDY     8  -2  64 N12G17    30.51R WCI  -7          
PERRY *          N/A      5  -4  65 N13       30.55R WCI -12          
$$
 
IAZ004>006-015-016-023>025-035-036-130100-
   NORTH CENTRAL IOWA
  
CITY           SKY/WX    TMP DP  RH WIND       PRES   REMARKS
ALGONA *       CLOUDY     5 N/A N/A N10       30.55R WCI -10          
CLARION *      CLOUDY     1  -8  66 N9        30.56R WCI -14          
ESTHERVILLE    CLOUDY     3  -5  69 N14       30.56R WCI -15          
6HR MIN TEMP:  -1; 6HR MAX TEMP:   4;                                

FORT DODGE *   CLOUDY     3  -6  66 N6        30.57R WCI  -8          
MASON CITY     CLOUDY    -1  -9  68 NW13      30.56R WCI -19          
6HR MIN TEMP:  -1; 6HR MAX TEMP:   4;                                

FOREST CITY *    N/A      1  -6  71 N9        30.55R WCI -14          
WEBSTER CITY * CLOUDY     3  -8  60 N14       30.54R WCI -15          
IOWA FALLS *     N/A      4  -4  68 NW15      30.53R WCI -14          
$$

IAZ007>011-017>019-026>030-037>042-050>054-066-130100-
   NORTHEAST IOWA
  
CITY           SKY/WX    TMP DP  RH WIND       PRES   REMARKS
CEDAR RAPIDS     N/A     11   0  61 N17       30.43R WCI  -6          
6HR MIN TEMP:  11; 6HR MAX TEMP:  15;                                

CHARLES CITY *   N/A      1  -9  60 N12       30.53R WCI -15          
CLINTON *        N/A     13   7  77 N13       30.41R WCI  -2          
DECORAH *        N/A      1  -6  71 N10G18    30.49R WCI -14          
DUBUQUE          N/A     10   0  63 N16       30.40R WCI  -7          
6HR MIN TEMP:  10; 6HR MAX TEMP:  16;                                

MONTICELLO *     N/A     10   0  61 N14G20    30.43R WCI  -5          
OELWEIN *        N/A      5   0  78 NW17      30.48R WCI -14          
WATERLOO         N/A      4  -4  69 NW13      30.51R WCI -13          
6HR MIN TEMP:   4; 6HR MAX TEMP:   9;                                

$$
 
IAZ064-065-067-068-078-130100-
   EAST CENTRAL IOWA
  
CITY           SKY/WX    TMP DP  RH WIND       PRES   REMARKS
DAVENPORT        N/A     14   5  67 NW16      30.42R WCI  -2          
6HR MIN TEMP:  14; 6HR MAX TEMP:  19; 6HR PCP: TRACE;                

IOWA CITY        N/A     13   0  56 N10       30.47R WCI   0          
6HR MIN TEMP:  12; 6HR MAX TEMP:  17;                                

MT. PLEASANT * CLEAR     12   3  67 N15       30.43R WCI  -4          
MUSCATINE *      N/A     14   5  67 N14G21    30.46R WCI  -1          
QUAD CITIES      N/A     16   6  65 NW15      30.40R WCI   1          
6HR MIN TEMP:  16; 6HR MAX TEMP:  19; 6HR PCP: TRACE;                

$$
 
IAZ062-063-075>077-085>089-095>099-130100-
   SOUTHEAST IOWA
  
CITY           SKY/WX    TMP DP  RH WIND       PRES   REMARKS
BURLINGTON     CLOUDY    14   5  67 N12G18    30.41R WCI   0          
6HR MIN TEMP:  14; 6HR MAX TEMP:  18;                                

FAIRFIELD *    CLOUDY    10   0  61 N13G21    30.45R WCI  -5          
FORT MADISON * CLEAR     12   7  79 N15       30.42R WCI  -4          
KEOKUK *       PTCLDY    12   5  73 N10       30.42R WCI  -1          
OSKALOOSA *      N/A      8  -1  69 N18       30.47R WCI -11          
OTTUMWA        CLOUDY     9  -1  64 NW17      30.45R WCI  -9          
6HR MIN TEMP:   9; 6HR MAX TEMP:  14;                                

WASHINGTON *   CLEAR     10   3  72 N13       30.46R WCI  -5          
$$

ABBREVIATIONS USED IN REMARKS
   TC - TEMPERATURES IN CELSIUS
  WCI - WIND CHILL INDEX
   HX - HEAT INDEX
  VSB - VISIBILITY  
$$

  

014 
ASUS43 KDMX 130001
RWRIA 

WEATHER ROUNDUP FOR IOWA
NATIONAL WEATHER SERVICE DES MOINES IA
600 PM CST FRI JAN 12 2018

NOTE: "FAIR" INDICATES FEW OR NO CLOUDS BELOW 12,000 FEET WITH NO
SIGNIFICANT WEATHER AND/OR OBSTRUCTIONS TO VISIBILITY.

* - THESE STATIONS ARE NOT NWS STATIONS...THUS NOT UNDER NWS
QUALITY CONTROL.  THEY ALSO DO NOT REPORT WEATHER SUCH 
AS PRECIPITATION OR FOG.  

IAZ001>003-012>014-020>022-031>034-043>046-130100-
   NORTHWEST IOWA
  
CITY           SKY/WX    TMP DP  RH WIND       PRES   REMARKS
CARROLL *      CLOUDY     7  -2  66 N10       30.55R WCI  -8          
CHEROKEE *     CLOUDY     6  -3  65 N8        30.58R WCI  -7          
DENISON *      CLOUDY     9   0  66 N12       30.56R WCI  -6          
LE MARS *      CLOUDY     7  -2  66 N14       30.60R WCI -10          
ORANGE CITY *  CLOUDY     7  -2  66 N6        30.57R WCI  -3          
SHELDON *      CLOUDY     5  -6  61 N13       30.56R WCI -12          
SIOUX CITY     CLOUDY     9  -3  58 N12       30.60R WCI  -6          
6HR MIN TEMP:   6; 6HR MAX TEMP:  10;                                

SPENCER        CLOUDY     5  -6  60 N13       30.57R WCI -12          
6HR MIN TEMP:   3; 6HR MAX TEMP:   7;                                

STORM LAKE *   CLOUDY     5  -4  66 N13       30.54R WCI -12          
$$
 
IAZ055>058-069>071-079>083-090>094-130100-
   SOUTHWEST IOWA
  
CITY           SKY/WX    TMP DP  RH WIND       PRES   REMARKS
ATLANTIC *     CLOUDY     9  -2  61 N12       30.54R WCI  -6          
AUDUBON *      CLOUDY     7  -2  66 N8        30.54R WCI  -6          
CLARINDA *     CLOUDY    10   0  61 N15       30.55R WCI  -6          
COUNCIL BLFS * CLOUDY    10   1  67 N10       30.54R WCI  -3          
CRESTON *      CLOUDY     7  -2  66 N14G20    30.50R WCI -10          
HARLAN  *      CLOUDY     9   0  66 N12       30.58R WCI  -6          
LAMONI         CLOUDY     7  -4  60 N14G23    30.47R WCI -10          
6HR MIN TEMP:   7; 6HR MAX TEMP:  12;                                

RED OAK *      CLOUDY    10   0  61 N15       30.55R WCI  -6          
SHENANDOAH *   CLOUDY    12   0  57 N16       30.56R WCI  -4          
$$
 
IAZ047>049-059>061-072>074-084-130100-
   CENTRAL IOWA
  
CITY           SKY/WX    TMP DP  RH WIND       PRES   REMARKS
AMES           CLOUDY     4  -4  69 N16       30.54R WCI -15          
6HR MIN TEMP:   1; 6HR MAX TEMP:   7;                                

ANKENY *       CLOUDY     5  -4  66 N14G22    30.55R WCI -12          
BOONE *        CLOUDY     3  -4  72 N16       30.52R WCI -16          
CHARITON *     CLOUDY     7  -4  61 N16G26    30.48R WCI -11          
DES MOINES     CLOUDY     7  -5  57 N15G22    30.53R WCI -10          
6HR MIN TEMP:   4; 6HR MAX TEMP:   9;                                

GRINNELL*      CLOUDY     6  -2  71 NW13      30.48R WCI -11          
KNOXVILLE *    CLOUDY     7  -4  61 NW16G24   30.48R WCI -11          
MARSHALLTOWN   CLOUDY     4  -4  69 N14       30.50R WCI -14          
6HR MIN TEMP:   3; 6HR MAX TEMP:   8;                                

NEWTON *       CLOUDY     7  -4  61 N20G25    30.50R WCI -13          
PELLA *        CLOUDY     8  -2  64 N12G17    30.51R WCI  -7          
$$
 
IAZ004>006-015-016-023>025-035-036-130100-
   NORTH CENTRAL IOWA
  
CITY           SKY/WX    TMP DP  RH WIND       PRES   REMARKS
ALGONA *       CLOUDY     5 N/A N/A N10       30.55R WCI -10          
CLARION *      CLOUDY     1  -8  66 N9        30.56R WCI -14          
ESTHERVILLE    CLOUDY     3  -5  69 N14       30.56R WCI -15          
6HR MIN TEMP:  -1; 6HR MAX TEMP:   4;                                

FORT DODGE *   CLOUDY     3  -6  66 N6        30.57R WCI  -8          
MASON CITY     CLOUDY    -1  -9  68 NW13      30.56R WCI -19          
6HR MIN TEMP:  -1; 6HR MAX TEMP:   4;                                

FOREST CITY *    N/A      1  -6  71 N9        30.55R WCI -14          
WEBSTER CITY * CLOUDY     3  -8  60 N14       30.54R WCI -15          
IOWA FALLS *     N/A      4  -4  70 NW13      30.52R WCI -13          
$$

IAZ007>011-017>019-026>030-037>042-050>054-066-130100-
   NORTHEAST IOWA
  
CITY           SKY/WX    TMP DP  RH WIND       PRES   REMARKS
CEDAR RAPIDS     N/A     11   0  61 N17       30.43R WCI  -6          
6HR MIN TEMP:  11; 6HR MAX TEMP:  15;                                

CHARLES CITY *   N/A      1  -9  60 N12       30.53R WCI -15          
CLINTON *        N/A     13   7  77 N13       30.41R WCI  -2          
DECORAH *        N/A      1  -6  71 N10G18    30.49R WCI -14          
DUBUQUE          N/A     10   0  63 N16       30.40R WCI  -7          
6HR MIN TEMP:  10; 6HR MAX TEMP:  16;                                

MONTICELLO *     N/A     10   0  61 N14G20    30.43R WCI  -5          
OELWEIN *        N/A      5   0  78 NW17      30.48R WCI -14          
WATERLOO         N/A      4  -4  69 NW13      30.51R WCI -13          
6HR MIN TEMP:   4; 6HR MAX TEMP:   9;                                

$$
 
IAZ064-065-067-068-078-130100-
   EAST CENTRAL IOWA
  
CITY           SKY/WX    TMP DP  RH WIND       PRES   REMARKS
DAVENPORT        N/A     14   5  67 NW16      30.42R WCI  -2          
6HR MIN TEMP:  14; 6HR MAX TEMP:  19; 6HR PCP: TRACE;                

IOWA CITY        N/A     13   0  56 N10       30.47R WCI   0          
6HR MIN TEMP:  12; 6HR MAX TEMP:  17;                                

MT. PLEASANT * CLEAR     12   3  67 N15       30.43R WCI  -4          
MUSCATINE *      N/A     14   5  67 N14G21    30.46R WCI  -1          
QUAD CITIES      N/A     16   6  65 NW15      30.40R WCI   1          
6HR MIN TEMP:  16; 6HR MAX TEMP:  19; 6HR PCP: TRACE;                

$$
 
IAZ062-063-075>077-085>089-095>099-130100-
   SOUTHEAST IOWA
  
CITY           SKY/WX    TMP DP  RH WIND       PRES   REMARKS
BURLINGTON     CLOUDY    14   5  67 N12G18    30.41R WCI   0          
6HR MIN TEMP:  14; 6HR MAX TEMP:  18;                                

FAIRFIELD *    CLOUDY    10   0  61 N13G21    30.45R WCI  -5          
FORT MADISON * CLEAR     12   7  79 N15       30.42R WCI  -4          
KEOKUK *       PTCLDY    12   5  73 N10       30.42R WCI  -1          
OSKALOOSA *      N/A      8  -1  69 N18       30.47R WCI -11          
OTTUMWA        CLOUDY     9  -1  64 NW17      30.45R WCI  -9          
6HR MIN TEMP:   9; 6HR MAX TEMP:  14;                                

WASHINGTON *   CLEAR     10   3  72 N13       30.46R WCI  -5          
$$

ABBREVIATIONS USED IN REMARKS
   TC - TEMPERATURES IN CELSIUS
  WCI - WIND CHILL INDEX
   HX - HEAT INDEX
  VSB - VISIBILITY  
$$